AirNav   Pilot Hours Calculator
 
 1652 users online  

D98 Romeo State Airport
Romeo, Michigan, USA

GOING TO ROMEO?


FAA INFORMATION EFFECTIVE 07 NOVEMBER 2019

Location

FAA Identifier: D98
Lat/Long: 42-47-46.8030N 082-58-27.3360W
42-47.780050N 082-58.455600W
42.7963342,-82.9742600
(estimated)
Elevation: 738.5 ft. / 225.1 m (surveyed)
Variation: 06W (1985)
From city: 2 miles E of ROMEO, MI
Time zone: UTC -5 (UTC -4 during Daylight Saving Time)
Zip code: 48095

Airport Operations

Airport use: Open to the public
Activation date: 02/1947
Control tower: no
ARTCC: CLEVELAND CENTER
FSS: LANSING FLIGHT SERVICE STATION
NOTAMs facility: LAN (NOTAM-D service available)
Attendance: MON-FRI 0800-1600
Wind indicator: lighted
Segmented circle: no
Lights: ACTVT MIRL, PAPI, REIL RY 18/36 - CTAF.
Beacon: white-green (lighted land airport)
Operates sunset to sunrise.

Airport Communications

CTAF/UNICOM: 122.8
SELFRIDGE APPROACH: 119.6
SELFRIDGE DEPARTURE: 119.6
WX AWOS-3 at VLL (18 nm SW): 119.475 (248-288-4649)
  • APCH/DEP SVC PRVDD BY CLEVELAND ARTCC (ZOB) ON FREQS 126.525/285.525 (ALGONAC RCAG) WHEN SELFRIDGE APCH CTL CLSD.

Nearby radio navigation aids

VOR radial/distance  VOR name  Freq  Var
YQGr355/33.4WINDSOR VOR/DME113.8006W
FNTr113/35.5FLINT VORTAC116.9006W
SVMr053/35.9SALEM VORTAC114.3003W
DXOr032/39.1DETROIT VOR/DME113.4006W

Airport Services

Fuel available: 100LL JET-A
24 HR SELF SVC.
24 HR SELF SVC.
Parking: hangars and tiedowns
Airframe service: NONE
Powerplant service: NONE
Bottled oxygen: NONE
Bulk oxygen: NONE

Runway Information

Runway 18/36

Dimensions: 4000 x 75 ft. / 1219 x 23 m
Surface: asphalt, in fair condition
Runway edge lights: medium intensity
RUNWAY 18  RUNWAY 36
Latitude: 42-48.109163N42-47.451198N
Longitude: 082-58.473767W082-58.436265W
Elevation: 737.7 ft.728.3 ft.
Traffic pattern: leftleft
Runway heading: 184 magnetic, 178 true004 magnetic, 358 true
Displaced threshold: 470 ft.no
Markings: nonprecision, in fair conditionnonprecision, in fair condition
Visual slope indicator: 4-light PAPI on left (3.00 degrees glide path)
PAPI RWY 18 OUT OF SERVICE INDEFINITELY.
4-light PAPI on left (3.00 degrees glide path)
Runway end identifier lights: yesyes
Touchdown point: yes, no lightsyes, no lights
Obstructions: 77 ft. trees, 1030 ft. from runway, 80 ft. left of centerline, 10:1 slope to clear
APCH RATIO 21:1 AT DSPLCD THLD.
13 ft. road, 358 ft. from runway, 12:1 slope to clear
APCH RATIO 27:1 FROM THLD.

Airport Ownership and Management from official FAA records

Ownership: Publicly-owned
Owner: STATE OF MICHIGAN
2700 PORT LANSING RD
LANSING, MI 48906
Phone (517) 335-9841
Manager: DONALD SCHORSCH
15340 32 MILE RD.
RAY, MI 48096
Phone 586-336-9116
586-337-5084 MGR CELL.

Airport Operational Statistics

Aircraft based on the field: 38
Single engine airplanes: 34
Multi engine airplanes: 4
    
Aircraft operations: avg 41/day *
50% transient general aviation
50% local general aviation
* for 12-month period ending 31 December 2015

Additional Remarks

DEER & BIRDS INVOF RY.
RY SFC COND UNMONITORED BTN 2100-1300Z++.
FOR APCH/DEP CTC CLEVELAND ARTCC AT 440-774-0229 WHEN SELFRIDGE APCH CTL CLSD.
FOR CD CTC CLEVELAND ARTCC AT 440-774-0490.

Instrument Procedures

NOTE: All procedures below are presented as PDF files. If you need a reader for these files, you should download the free Adobe Reader.

NOT FOR NAVIGATION. Please procure official charts for flight.
FAA instrument procedures published for use from 07 November 2019 at 0901Z to 05 December 2019 at 0900Z.

 
IAPs - Instrument Approach Procedures
RNAV (GPS) RWY 18 **CHANGED**   download (172KB)
RNAV (GPS) RWY 36 **CHANGED**   download (179KB)
NOTE: Special Take-Off Minimums/Departure Procedures apply   download (122KB)

Other nearby airports with instrument procedures:

57D - Ray Community Airport (5 nm SE)
KMTC - Selfridge Air National Guard Base (13 nm SE)
KVLL - Oakland/Troy Airport (18 nm SW)
KPHN - St Clair County International Airport (21 nm E)
D95 - Dupont-Lapeer Airport (21 nm NW)
 
Loc | Ops | Rwys | IFR | FBO | Links
Com | Nav | Svcs | Stats | Notes
Area around D98 (Romeo State Airport)
 
Road maps at: MapQuest Bing Google
 
Aerial photo
WARNING: Photo may not be current or correct
Aerial photo of D98 (Romeo State Airport)
Do you have a better or more recent aerial photo of Romeo State Airport that you would like to share? If so, please send us your photo.

 
Sectional chart

 
Airport distance calculator
Flying to Romeo State Airport? Find the distance to fly.

From to D98

Sunrise and sunset
Times for 20-Nov-2019
 Local
(UTC-5)
 Zulu
(UTC)
Morning civil twilight07:0012:00
Sunrise07:3112:31
Sunset17:0422:04
Evening civil twilight17:3522:35

Current date and time
Zulu (UTC)  20-Nov-2019 15:51:04
Local (UTC-5)  20-Nov-2019 10:51:04
 
METAR
KMTC 
13nm SE 
201456Z 26008KT 10SM FEW035 05/02 A3015 RMK AO2A SLP220 T00540022 52016
KVLL 
18nm SW 
201536Z AUTO 24004KT 10SM OVC025 05/00 A3019 RMK AO2 T00470002
KD95 
21nm NW 
201535Z AUTO 32004KT 10SM BKN015 04/00 A3018 RMK AO2 T00401002
KPTK 
21nm W 
201453Z 25004KT 4SM HZ OVC023 03/M01 A3015 RMK AO2 SLP217 T00281006 51017
KPHN 
21nm E 
201535Z AUTO 28006KT 10SM CLR 05/00 A3017 RMK AO2
KDET 
24nm S 
201453Z 33003KT 9SM OVC028 05/M01 A3017 RMK AO2 SLP223 T00501011 51018
TAF
KMTC 
13nm SE 
192350Z 1923/2023 VRB06KT 4800 BR OVC020 QNH2984INS BECMG 2011/2012 VRB06KT 8000 BR OVC006 QNH3005INS BECMG 2017/2018 VRB06KT 8000 BR SCT008 BKN020 QNH3008INS TX04/2017Z TN00/1923Z
NOTAMs
Click for the latest NOTAMs
NOTAMs are issued by the DoD/FAA and will open in a separate window not controlled by AirNav.

 

 
 

FBO, Fuel Providers, and Aircraft Ground Support

  
 Business Name 
 
 Contact 
 
 Services / Description 
 
Fuel Prices
 
Comments
  
Romeo Airport Management 586-336-9116
[email]
Airport management, Aviation fuel, Hangars, Hangar leasing / sales, Passenger terminal and lounge, Flight training

More info about Romeo Airport Management
Avfuel
100LL Jet A
SS $4.99 $4.10 
 Updated 12-Nov-2019
 
   write
SS=Self service
Update Fuel Prices
 

Would you like to see your business listed on this page?

 If your business provides an interesting product or service to pilots, flight crews, aircraft, or users of the Romeo State Airport, you should consider listing it here.  To start the listing process, click on the button below
 
Add a business
 

Other Pages about Romeo State Airport

Page from the Michigan Airport Directory (PDF)
 
Update a link
 
Copyright © AirNav, LLC. All rights reserved. Privacy Policy  Contact